www.pogodaiklimat.ru

Погода и климат >> Архив погоды >> Беларусь >> Полесская


ПОГОДА в Полесской

  • Прогноз погоды в Полесской
  • Монитор погоды в Полесской
  • Климат города

АРХИВ ПОГОДЫ в Полесской

Время (UTC), дата Ветер
(напр.,м/с)
 
Видим.   Явления Облачность Т
(С)
Тd
(С)
f
(%)
Тe
(С)
Тes
(С)
Комфортность P
(гПа)
Po
(гПа)
Тmin
(С)
Tmax
(С)
R
(мм)
R24
(мм)
S
(см)
03 13.02 В 2 4000 м дымка 9/9 1440 м
[Sc]
-3.4 -4.5 92 -8 -8 1017.5 1000.3 -3.5 13
06 13.02 В 2 4000 м дымка 9/9 1470 м
[Sc]
-4.9 -5.9 93 -9 -9 1018.1 1000.9 -5.1 13
09 13.02 С 1 4000 м дымка 9/9 720 м
[Sc]
-0.8 -2.1 91 -3 -3 1018.7 1001.8
12 13.02 В 2 10 км 9/9 570 м
[Sc]
+0.3 -2.1 84 -3 -3 1018.4 1001.5
15 13.02 В 2 4000 м слабый ливневой снег 10/10 420 м
[Frnb]
-0.7 -1.7 93 -5 -5 1018.4 1001.5
18 13.02 СВ 3 10 км {ливн. осадки} 9/9 500 м
[Sc]
-1.6 -2.7 92 -7 -7 1018.9 1001.8 +0.6 0.2 13
21 13.02 СВ 2 10 км 9/9 660 м
[Sc]
-5.0 -6.7 88 -9 -9 1019.8 1002.5
00 14.02 В 2 10 км {ливн. осадки} 9/9 900 м
[Sc]
-3.9 -5.8 87 -8 -8 1019.6 1002.4
03 14.02 В 4 10 км 10 баллов -4.2 -6.8 82 -10 -10 1020.0 1004.0 -5.5 13
06 14.02 В 4 10 км 10/8 960 м
[Sc Ac trans Ci fib]
-6.2 -8.1 86 -13 -13 1021.2 1003.8 -6.2 0.0 13
09 14.02 ЮВ 4 10 км 10/10 330 м
[Sc]
-5.2 -7.3 85 -12 -12 1022.6 1005.3
12 14.02 В 5 10 км 10/10 420 м
[Sc]
-3.8 -7.1 78 -11 -11 1022.7 1005.4
15 14.02 В 5 10 км 10/10 540 м
[Sc]
-4.6 -7.3 81 -12 -12 1023.6 1006.3
18 14.02 В 3 10 км 9/9 540 м
[Sc]
-5.4 -8.3 80 -11 -11 1025.1 1007.6 -3.3 13
21 14.02 В 2 10 км 9/9 660 м
[Sc]
-6.2 -8.9 81 -10 -10 1026.0 1008.5
00 15.02 В 2 10 км 9/9 600 м
[Sc]
-6.6 -8.6 86 -11 -11 1026.4 1008.9
03 15.02 В 2 10 км 9/9 570 м
[Sc]
-6.9 -8.5 88 -11 -11 1026.7 1009.2 -6.9 13
06 15.02 В 3 10 км 9/9 600 м
[Sc]
-6.7 -8.7 86 -12 -12 1027.8 1010.3 -6.9 13
09 15.02 В 2 10 км 10/8 720 м
[Sc Ci fib]
-4.9 -7.7 81 -9 -8 1028.5 1011.1
12 15.02 штиль 0 10 км 9/9 570 м
[Sc]
-3.5 -7.9 72 -4 -4 1028.3 1010.9
15 15.02 В 3 10 км 9/9 500 м
[Sc]
-3.8 -7.1 78 -9 -9 1028.4 1011.0
18 15.02 В 1 10 км 9/9 600 м
[Sc]
-4.2 -6.8 82 -6 -6 1028.7 1011.3 -3.0 13
21 15.02 В 1 10 км 9/9 600 м
[Sc]
-4.5 -6.8 84 -7 -7 1028.3 1010.9
00 16.02 В 1 10 км 9/9 1410 м
[Sc]
-4.6 -7.0 83 -7 -7 1027.5 1010.1
03 16.02 ЮВ 2 10 км 9/9 630 м
[Sc]
-3.8 -5.6 87 -8 -8 1026.8 1009.4 -4.6 13
06 16.02 ЮВ 3 4000 м слабый снег 10/10 300 м
[Frnb Ns]
-3.5 -4.6 92 -9 -9 1025.7 1008.3 -4.6 0.0 13
09 16.02 ЮВ 4 4000 м дымка {снег} 9/9 1500 м
[Sc]
-2.2 -3.7 89 -8 -8 1025.3 1008.1
12 16.02 ЮВ 5 4000 м дымка {снег} 9/9 1110 м
[Sc]
-0.6 -2.7 86 -7 -7 1024.2 1007.2
15 16.02 Ю 4 4000 м дымка 9/9 600 м
[Sc]
-0.2 -2.2 86 -6 -6 1023.2 1006.2
18 16.02 Ю 4 4000 м дымка 9/9 600 м
[Sc]
-0.5 -2.0 90 -6 -6 1023.0 1006.0 +0.5 0.0 10
21 16.02 З 4 4000 м дымка 10/10 400 м
[St]
0.0 -2.0 86 -5 -5 1022.8 1005.8
00 17.02 З 3 4000 м дымка 10/10 330 м
[St]
-0.6 -2.1 90 -5 -5 1023.1 1006.1
03 17.02 З 4 4000 м дымка 10/10 360 м
[St]
-0.4 -1.3 94 -6 -6 1023.4 1006.4 -1.0 10
06 17.02 ЮЗ 3 4000 м дымка 8/6 600 м
[Sc Ci fib]
-5.0 -6.0 93 -11 -11 1023.5 1006.2 -5.0 10
09 17.02 ЮЗ 4 4000 м дымка 10/3 600 м
[Sc Ac trans Ci fib]
-1.1 -3.0 87 -7 -6 1022.5 1005.5
12 17.02 ЮЗ 6 4000 м дымка 9/9 500 м
[Sc]
+0.6 -2.0 83 -6 -6 1021.5 1004.6
15 17.02 З 4 4000 м дымка {ливн. осадки} 9/9 500 м
[Sc]
+1.1 -1.5 83 -4 -4 1020.9 1004.0
18 17.02 ЮЗ 4 4000 м дымка {ливн. осадки} 9/9 1410 м
[Sc]
+0.6 -1.1 88 -5 -5 1020.8 1003.9 +1.5 0.0 9
21 17.02 З 4 4000 м дымка 9/9 1470 м
[Sc]
+0.5 -0.9 90 -5 -5 1020.5 1003.6
00 18.02 З 4 4000 м дымка 9/9 630 м
[Sc]
+0.2 -0.9 92 -5 -5 1020.7 1003.7
03 18.02 З 2 4000 м дымка 9/9 600 м
[Sc]
-0.4 -1.6 92 -4 -4 1020.7 1003.7 -0.5 9
06 18.02 СЗ 2 4000 м в посл. час ливневой снег 9/9 570 м
[Sc]
-0.9 -1.9 93 -5 -5 1021.2 1004.2 -1.0 0.3 9
09 18.02 СЗ 4 4000 м слабый ливневой снег 10/10 540 м
[Cb cap]
-1.7 -4.1 84 -7 -7 1022.0 1004.9
12 18.02 СЗ 4 10 км {ливн. осадки} 9/9 800 м
[Sc]
-2.1 -6.4 72 -8 -8 1023.0 1005.9
15 18.02 СЗ 4 10 км 9/9 1170 м
[Sc]
-2.2 -7.3 68 -8 -8 1023.5 1006.4
18 18.02 З 2 10 км 9/9 1140 м
[Sc]
-4.0 -7.4 77 -8 -8 1025.1 1007.7 -0.7 0.0
21 18.02 З 4 10 км 9/9 700 м
[Sc]
-3.4 -6.6 78 -9 -9 1025.5 1008.2
00 19.02 СЗ 5 10 км 10 баллов -3.6 -7.2 76 -10 -10 1026.0 1010.0
03 19.02 ЮЗ 4 4000 м 10 баллов -4.3 -7.4 79 -10 -10 1025.0 1009.0 -4.4 9
06 19.02 З 5 10 км 10 баллов -4.2 -6.8 82 -11 -11 1025.0 1009.0 -4.4 9
09 19.02 З 4 10 км 10 баллов -3.6 -7.2 76 -10 -10 1026.0 1010.0
12 19.02 З 4 10 км 10 баллов -0.3 -5.1 70 -6 -6 1025.0 1009.2
15 19.02 З 3 10 км 10 баллов -0.1 -3.6 77 -5 -5 1025.0 1009.2
18 19.02 З 2 10 км 10 баллов -0.8 -3.3 83 -5 -5 1025.0 1009.2 0.0 9
21 19.02 штиль 0 10 км 10 баллов -0.9 -3.1 85 -2 -2 1025.0 1009.2

 

Местоположение метеостанции Полесская (Брестская область, Беларусь): широта 52.30 долгота 26.70 высота над уровнем моря 124 м.

В архиве по умолчанию представлена погода в Полесской за последнюю неделю. Архивные данные за месяц целиком и за предыдущие месяцы, начиная с января 2011 года, Вы можете получить, выбрав интересующий диапазон дат из раскрывающегося списка и нажав кнопку "Ввод!".

Внимание! Время в таблицах - всемирное. Для получения местного времени необходимо прибавить поправку, которая в Полесской равна 3 ч.

Смотрите также архив погоды в соседних городах и на ближайших метеорологических станциях:

Погода в Пинске (Брестская область, Беларусь) (48 км)
Погода в Ганцевичах (Брестская область, Беларусь) (53 км)
Погода в Житковичах (Гомельская область, Беларусь) (80 км)
Погода в Слуцке (Минская область, Беларусь) (99 км)
Погода в Ивацевичах (Брестская область, Беларусь) (101 км)
Погода в Барановичах (Брестская область, Беларусь) (105 км)
Погода в Сарнах (Ровенская область, Украина) (114 км)
Погода в Любешове (Волынская область, Украина) (120 км)
Погода в Столбцах (Минская область, Беларусь) (131 км)
Погода в Олевске (Житомирская область, Украина) (138 км)

Пояснения к столбцам:

Ветер - указаны скорость ветра в м/с - средняя за 10 мин, порывы в срок и между сроками (в фигурных скобках) и направление, откуда дует ветер: С - северный, СВ - северо-восточный, В - восточный, ЮВ - юго-восточный, Ю - южный, ЮЗ - юго-западный, З - западный, СЗ - северо-западный.
Видимость - горизонтальная дальность видимости в метрах или километрах. При видимости от 1 до 10 км при отсутствии осадков обычно наблюдается дымка, при ухудшении видимости до 1 км и менее - туман. В сухую погоду видимость может ухудшаться дымом, пылью или мглою.
Явления - указаны атмосферные явления, наблюдавшиеся в срок или в последний час перед сроком; фигурными скобками обозначены явления, наблюдавшиеся между сроками (за 1-3 часа до срока); квадратными скобками обозначены град или гололедные отложения с указанием их диаметра в мм.
Облачность - указаны через наклонную черту общая и нижняя облачность в баллах и высота нижней границы облаков в метрах; квадратными скобками обозначены формы облаков: Ci - перистые, Cs - перисто-слоистые, Cc - перисто-кучевые, Ac - высококучевые, As - высокослоистые, Sc - слоисто-кучевые, Ns - слоисто-дождевые, Cu - кучевые, Cb - кучево-дождевые. Подробнее классификацию облаков см. в Атласе облаков (PDF).
T - Температура воздуха - температура, измеренная на высоте 2 м над землей.
Td - Температура точки росы - температура, при понижении до которой содержащийся в воздухе водяной пар достигнет насыщения.
f - Относительная влажность воздуха - влажноcть воздуха, измеренная на высоте 2 м над землей.
Te - Эффективная температура - температура, которую ощущает одетый по сезону человек в тени. Характеристика душности погоды. При расчете учитывается влияние влажности воздуха и скорости ветра на теплоощущения человека.
Tes - Эффективная температура на солнце - температура, которую ощущает человек, с поправкой на солнечный нагрев. Характеристика знойности погоды. Зависит от высоты солнца над горизонтом, облачности и скорости ветра. Ночью, в пасмурную погоду, а также при ветре 12 м/с и более поправка равна нулю.
P - Атмосферное давление - приведенное к уровню моря атмосферное давление.
Po - Атмосферное давление - измеренное на уровне метеостанции атмосферное давление.
Tmin - Минимальная температура - минимум температуры воздуха на высоте 2 м над землей.
Tmax - Максимальная температура - максимум температуры воздуха на высоте 2 м над землей.
R - Количество осадков - Количество выпавших осадков за период времени, мм. При наведении курсора мыши на число - период времени, за который выпало указанное количество осадков.
R24 - Количество осадков - Количество выпавших осадков за 24 часа, мм.
S - Снежный покров - Высота снежного покрова, см. При наведении курсора мыши на число - состояние снежного покрова и степень покрытия местности в баллах.